Location: Unspecified
(0.0000°N, 0.0000°E)
Time: 14:18:36
(UTC+00:00)

Vanguard 2 - Pass Details

Date: 10 December 2017
Orbit: 553 x 2939 km, 32.9° (Epoch: 21 January)

Event Time Altitude Azimuth Distance (km) Brightness Sun altitude
Rises 22:41:44 0° 332° (NNW) 3,075 - -61.2°
Reaches altitude 10° 22:44:11 10° 346° (NNW) 2,359 - -61.6°
Maximum altitude 22:48:45 25° 42° (NE) 1,916 - -62.2°
Drops below altitude 10° 22:55:16 10° 94° (E) 3,487 - -63.1°
Sets 22:59:47 0° 105° (ESE) 4,938 - -63.6°
